TimeCET,TemperatureF,Dew PointF,Humidity,Sea Level PressureIn,VisibilityMPH,Wind Direction,Wind SpeedMPH,Gust SpeedMPH,PrecipitationIn,Events,Conditions,WindDirDegrees,DateUTC
12:20 AM,44.6,39.2,81,29.92,6.2,South,10.4,-,N/A,,Scattered Clouds,190,2012-10-28 23:20:00
12:50 AM,42.8,39.2,87,29.92,6.2,South,9.2,-,N/A,Rain,Light Rain,190,2012-10-28 23:50:00
1:00 AM,43,40,84,29.93,9,South,8.9,,,Rain,Light Rain,190,2012-10-29 00:00:00
1:20 AM,42.8,39.2,87,29.92,6.2,SSW,10.4,-,N/A,Rain,Light Rain,200,2012-10-29 00:20:00
1:50 AM,42.8,39.2,87,29.92,6.2,South,9.2,-,N/A,Rain,Light Rain,190,2012-10-29 00:50:00
2:20 AM,42.8,41.0,93,29.92,6.2,SSW,10.4,-,N/A,Rain,Light Rain,200,2012-10-29 01:20:00
2:50 AM,42.8,41.0,93,29.92,5.0,SSW,10.4,-,N/A,Rain,Light Rain,200,2012-10-29 01:50:00
3:20 AM,42.8,41.0,93,29.89,6.2,South,9.2,-,N/A,Rain,Light Rain,190,2012-10-29 02:20:00
3:50 AM,42.8,41.0,93,29.89,5.6,South,10.4,-,N/A,Rain,Light Rain,190,2012-10-29 02:50:00
4:00 AM,43,41,88,29.90,6,South,11.2,,,Rain,Light Rain,190,2012-10-29 03:00:00
4:20 AM,42.8,41.0,93,29.89,5.0,SSW,9.2,-,N/A,Rain,Light Rain,200,2012-10-29 03:20:00
4:50 AM,42.8,41.0,93,29.89,5.0,SSW,9.2,-,N/A,Rain,Light Rain,200,2012-10-29 03:50:00
5:20 AM,42.8,41.0,93,29.89,3.7,SSW,8.1,-,N/A,Rain,Light Rain,200,2012-10-29 04:20:00
5:50 AM,42.8,41.0,93,29.89,3.7,SSW,8.1,-,N/A,Rain,Light Rain,200,2012-10-29 04:50:00
6:20 AM,44.6,41.0,87,29.86,3.7,SSW,8.1,-,N/A,Rain,Light Rain,200,2012-10-29 05:20:00
6:50 AM,44.6,41.0,87,29.86,3.7,SSW,10.4,-,N/A,Rain,Light Rain,200,2012-10-29 05:50:00
7:00 AM,44,42,89,29.88,4,SSW,11.2,,,Rain,Light Rain,200,2012-10-29 06:00:00
7:20 AM,44.6,41.0,87,29.86,6.2,South,6.9,-,N/A,,Mostly Cloudy,180,2012-10-29 06:20:00
7:50 AM,44.6,41.0,87,29.86,6.2,South,9.2,-,N/A,,Partly Cloudy,180,2012-10-29 06:50:00
8:20 AM,44.6,41.0,87,29.86,6.2,South,6.9,-,N/A,,Scattered Clouds,180,2012-10-29 07:20:00
8:50 AM,44.6,42.8,93,29.89,3.7,SSW,10.4,-,N/A,Rain,Light Rain,200,2012-10-29 07:50:00
9:20 AM,44.6,42.8,93,29.89,3.7,South,8.1,-,N/A,Rain,Light Rain,190,2012-10-29 08:20:00
9:50 AM,46.4,42.8,87,29.86,4.3,South,10.4,-,N/A,Rain,Light Rain,190,2012-10-29 08:50:00
10:20 AM,46.4,42.8,87,29.86,5.6,SSW,12.7,-,N/A,Rain,Light Rain,200,2012-10-29 09:20:00
10:50 AM,46.4,42.8,87,29.86,6.2,SSW,15.0,-,N/A,Rain,Light Rain,200,2012-10-29 09:50:00
11:20 AM,46.4,44.6,93,29.86,6.2,SSW,13.8,-,N/A,Rain,Light Rain,200,2012-10-29 10:20:00
11:50 AM,48.2,44.6,87,29.86,6.2,SSW,15.0,-,N/A,,Scattered Clouds,210,2012-10-29 10:50:00
12:20 PM,48.2,44.6,87,29.83,6.2,SSW,16.1,-,N/A,,Scattered Clouds,200,2012-10-29 11:20:00
12:50 PM,48.2,44.6,87,29.83,6.2,SSW,15.0,-,N/A,,Mostly Cloudy,200,2012-10-29 11:50:00
1:00 PM,48,45,86,29.85,12,SSW,13.4,,,,Partly Cloudy,200,2012-10-29 12:00:00
1:20 PM,48.2,44.6,87,29.83,6.2,SSW,15.0,-,N/A,Rain,Light Rain,210,2012-10-29 12:20:00
1:50 PM,48.2,44.6,87,29.83,6.2,SSW,16.1,-,N/A,,Mostly Cloudy,210,2012-10-29 12:50:00
2:20 PM,50.0,46.4,87,29.80,6.2,SSW,16.1,-,N/A,,Mostly Cloudy,210,2012-10-29 13:20:00
2:50 PM,48.2,46.4,93,29.80,6.2,SSW,17.3,-,N/A,,Scattered Clouds,210,2012-10-29 13:50:00
3:20 PM,50.0,46.4,87,29.80,6.2,SSW,15.0,-,N/A,,Scattered Clouds,210,2012-10-29 14:20:00
3:50 PM,50.0,46.4,87,29.80,6.2,SSW,13.8,-,N/A,,Mostly Cloudy,210,2012-10-29 14:50:00
4:00 PM,49,46,84,29.80,19,SSW,13.4,,,,Partly Cloudy,210,2012-10-29 15:00:00
4:20 PM,48.2,44.6,87,29.77,5.0,SSW,15.0,-,N/A,Rain,Light Rain,210,2012-10-29 15:20:00
4:50 PM,48.2,44.6,87,29.77,6.2,SSW,13.8,-,N/A,,Scattered Clouds,200,2012-10-29 15:50:00
5:20 PM,48.2,44.6,87,29.77,6.2,SSW,15.0,-,N/A,,Scattered Clouds,210,2012-10-29 16:20:00
5:50 PM,48.2,44.6,87,29.77,5.6,SSW,15.0,-,N/A,Rain,Light Rain,200,2012-10-29 16:50:00
6:20 PM,48.2,44.6,87,29.74,3.7,SSW,13.8,-,N/A,Rain,Light Rain Showers,200,2012-10-29 17:20:00
6:50 PM,48.2,44.6,87,29.74,3.7,SSW,13.8,-,N/A,Rain,Rain Showers,210,2012-10-29 17:50:00
7:20 PM,48.2,44.6,87,29.74,6.2,SW,13.8,-,N/A,Rain,Light Rain Showers,220,2012-10-29 18:20:00
7:50 PM,48.2,44.6,87,29.74,3.7,SSW,16.1,-,N/A,Rain,Rain,210,2012-10-29 18:50:00
8:20 PM,48.2,44.6,87,29.74,6.2,SSW,13.8,-,N/A,,Mostly Cloudy,200,2012-10-29 19:20:00
8:50 PM,48.2,44.6,87,29.74,3.7,SW,11.5,-,N/A,Rain,Light Rain,220,2012-10-29 19:50:00
9:20 PM,48.2,44.6,87,29.74,6.2,SSW,9.2,-,N/A,,Scattered Clouds,210,2012-10-29 20:20:00
9:50 PM,48.2,44.6,87,29.74,6.2,SW,11.5,-,N/A,,Scattered Clouds,220,2012-10-29 20:50:00
10:00 PM,48,45,85,29.74,9,SW,11.2,,,Rain,Light Rain,220,2012-10-29 21:00:00
10:20 PM,48.2,44.6,87,29.74,6.2,SSW,10.4,-,N/A,Rain,Light Rain Showers,200,2012-10-29 21:20:00
10:50 PM,48.2,44.6,87,29.71,6.2,SSW,9.2,-,N/A,,Scattered Clouds,210,2012-10-29 21:50:00
11:20 PM,46.4,44.6,93,29.71,6.2,SSW,8.1,-,N/A,,Partly Cloudy,210,2012-10-29 22:20:00
11:50 PM,46.4,44.6,93,29.71,6.2,SW,8.1,-,N/A,,Scattered Clouds,220,2012-10-29 22:50:00